Regional Weather Roundup
Issued by NWS Newport/Morehead, NC

Current Version | Previous Version | Graphics & Text | Print | Product List | Glossary Off
Versions: 1 2 3 4 5 6 7 8 9 10 11 12 13 14 15 16 17 18 19 20 21 22 23 24 25 26 27 28 29 30 31 32 33 34 35 36 37 38 39 40 41 42 43 44 45 46 47 48 49 50

623
ASUS42 KMHX 221525
RWRMHX
WEATHER ROUNDUP FOR EASTERN NORTH CAROLINA
NATIONAL WEATHER SERVICE NEWPORT/MOREHEAD CITY NC
1100 AM EDT WED MAR 22 2017

NOTE: "FAIR" INDICATES FEW OR NO CLOUDS BELOW 12,000 FEET
WITH NO SIGNIFICANT WEATHER AND/OR OBSTRUCTIONS TO VISIBILITY

NCZ015>017-031-032-045>047-102-103-221600-
NORTH COAST

CITY           SKY/WX    TMP DP  RH WIND       PRES   REMARKS
EDENTON        CLOUDY    57  42  56 NE15G22   30.10R
ELIZABETH CITY CLOUDY    54  38  54 N21G30    30.09R
KITTY HAWK     NOT AVBL
MANTEO         CLOUDY    53  41  65 NE22G32   30.09R

$$

NCZ045>047-081-094-103-104-221600-
CENTRAL COAST

CITY           SKY/WX    TMP DP  RH WIND       PRES   REMARKS
FRISCO         CLOUDY    53  48  83 NE9       30.02R HAZE

$$

NCZ095-097-098-100-101-221600-
SOUTHERN COAST

CITY           SKY/WX    TMP DP  RH WIND       PRES   REMARKS
BEAUFORT       CLOUDY    56  51  84 N12       30.05R
CEDAR ISLAND   NOT AVBL
JACKSONVILLE   CLOUDY    57  52  83 N12       30.06R
PINEY ISLAND   NOT AVBL
WILMINGTON     PTSUNNY   59  51  75 NE13      30.05R


$$

NCZ011>013-027>030-043-044-078>080-089-090>093-098-221600-
COASTAL PLAIN

CITY           SKY/WX    TMP DP  RH WIND       PRES   REMARKS
AHOSKIE        NOT AVBL
CLINTON        PTSUNNY   60  51  71 N7        30.10R
ELIZABETHTOWN  PTSUNNY   63  50  62 N6        30.09R
GOLDSBORO      CLOUDY    58  54  85 VRB7      30.08R
GREENVILLE     CLOUDY    59  50  72 N10       30.11R
HAVELOCK       CLOUDY    58  50  75 N14       30.07R
KENANSVILLE    CLOUDY    59  50  72 N10       30.10R
KINSTON        CLOUDY    57  50  77 N8        30.09R
NEW BERN       CLOUDY    55  51  86 N9        30.08R
RICHLANDS      CLOUDY    56  51  84 N8        30.08R
ROCKY MOUNT    CLOUDY    60  44  55 N14G25    30.10R
WASHINGTON     CLOUDY    56  49  77 N9        30.09R
WHITEVILLE     MOSUNNY   62  48  59 N12G21    30.07R

$$

AMZ130-135-150-152-154-156-158-170-250-252-270-ANZ085-086-088-633-658-670-221600-
MARINE OBSERVATIONS

STATION/POSITION TIME  TEMP    WIND        PRES    WAVE   SWELL
                       AIR SEA DIR/SP/G            HT/PER HT/PER
                 (UTC) (F)     (DEG/KT/KT) (MB)    (FT/S) (FT/S)
CHESAPEAKE LIGHT NOT AVBL
64 E VA BEACH    1450   50 48   10/ 27/ 33 1017.1    4/10   3/10
DUCK             1500   50 48  360/ 29/ 34 1017.7
2 E DUCK         1500      48                N/A     3/11   2/11
OREGON INLET     1500   52 51  340/ 13/ 17 1018.1
13E OREGON INLT  NOT AVBL
HATTERAS CG      1500   53 54   20/ 12/ 15 1016.5
DIAMOND BUOY     1450   56 73   20/ 23/ 29 1015.4    8/11   5/11
CAPE LOOKOUT     1500   54     360/ 12/ 15 1016.8
BEAUFORT LAB     1500   53 53   10/ 11/ 13 1016.5
30 SE NEW RVR IN 1508   56      30/ 19/ 25 1016.8
30 SE NEW RVR IN 1443      64                N/A     5/ 8   2/11
27 SE WRIGHTSVLE 1508   57 64   50/ 19/ 27 1016.2
5 SE WRIGHTSVLE  1508   56 56   30/ 14/ 21 1017.5
225 S CAPE HAT   1450   73 75  220/ 27/ 31 1013.4    9/ 8   2/11
41 SE CHARLESTON 1450   63 66  320/ 16/ 17 1016.6    4/ 6   2/10

$$




USA.gov is the U.S. government's official web portal to all federal, state and local government web resources and services.